Weather History for Figari, France

Change the Weather History Date:

Thursday, July 19, 2012

  Actual Average Record
Temperature  
Mean Temperature 76 °F -  
Max Temperature 96 °F 85 °F 96 °F (2012)
Min Temperature 55 °F 68 °F 55 °F (2012)
Cooling Degree Days 10    
Growing Degree Days 26 (Base 50)    
Moisture  
Dew Point 55 °F    
Average Humidity 55    
Maximum Humidity 94    
Minimum Humidity 15    
Precipitation  
Precipitation 0.00 in - - ()
Sea Level Pressure  
Sea Level Pressure 29.99 in    
Wind  
Wind Speed 5 mph ()    
Max Wind Speed 15 mph    
Max Gust Speed -    
Visibility 6.2 miles    
Events      
Averages and records for this station are not official NWS values.
T = Trace of Precipitation, MM = Missing Value Source: Averaged Metar Reports

Daily Weather History Graph

Daily Weather History Graph

Search for Another Location

Airport:

Trip Planner

Search our weather history database for the weather conditions in past years. The results will help you decide how hot, cold, wet, or windy it might be!

Date:

Astronomy

Jul. 19, 2012 Rise Set
Actual Time 6:06 AM CEST 8:52 PM CEST
Civil Twilight 5:33 AM CEST 9:25 PM CEST
Nautical Twilight 4:52 AM CEST 10:06 PM CEST
Astronomical Twilight 4:05 AM CEST 10:52 PM CEST
Moon 6:25 AM CEST (7/19) 8:48 PM CEST (7/19)
Length of Visible Light 15h 51m
Length of Day
14h 46m
Waxing Crescent, 0% of the Moon is Illuminated
Jul 19
Waxing Crescent
Jul 26
First Quarter
Aug 2
Full
Aug 9
Last Quarter
Aug 17
New

Hourly Weather History & Observations

Time (CEST) Temp. Heat Index Dew Point Humidity Pressure Visibility Wind Dir Wind Speed Gust Speed Precip Events Conditions
12:00 AM 62.6 °F - 55.4 °F 77% 30.06 in 6.2 mi Calm Calm - N/A   Unknown
12:30 AM 60.8 °F - 55.4 °F 82% 30.06 in 6.2 mi North 2.3 mph - N/A   Unknown
1:00 AM 60.8 °F - 57.2 °F 88% 30.06 in 6.2 mi Variable 1.2 mph - N/A   Unknown
1:30 AM 59.0 °F - 55.4 °F 88% 30.04 in 6.2 mi North 2.3 mph - N/A   Unknown
2:00 AM 59.0 °F - 53.6 °F 82% 30.04 in 6.2 mi North 2.3 mph - N/A   Unknown
2:30 AM 57.2 °F - 53.6 °F 88% 30.04 in 6.2 mi North 1.2 mph - N/A   Unknown
3:00 AM 57.2 °F - 53.6 °F 88% 30.04 in 6.2 mi North 3.5 mph - N/A   Unknown
3:30 AM 57.2 °F - 53.6 °F 88% 30.01 in 6.2 mi North 3.5 mph - N/A   Unknown
4:00 AM 57.2 °F - 53.6 °F 88% 30.01 in 6.2 mi North 3.5 mph - N/A   Unknown
4:30 AM 55.4 °F - 53.6 °F 94% 30.01 in 6.2 mi North 3.5 mph - N/A   Unknown
5:00 AM 55.4 °F - 53.6 °F 94% 30.01 in 6.2 mi Variable 3.5 mph - N/A   Unknown
5:30 AM 55.4 °F - 53.6 °F 94% 30.01 in 6.2 mi NNE 3.5 mph - N/A   Unknown
6:30 AM 57.2 °F - 53.6 °F 88% 30.01 in 6.2 mi North 3.5 mph - N/A   Unknown
7:00 AM 60.8 °F - 57.2 °F 88% 30.01 in 6.2 mi North 3.5 mph - N/A   Unknown
7:30 AM 66.2 °F - 60.8 °F 83% 30.01 in 6.2 mi North 2.3 mph - N/A   Unknown
8:00 AM 73.4 °F - 62.6 °F 69% 30.01 in 6.2 mi Calm Calm - N/A   Unknown
8:30 AM 77.0 °F - 59.0 °F 54% 30.01 in 6.2 mi Calm Calm - N/A   Unknown
9:00 AM 82.4 °F 82.0 °F 57.2 °F 42% 30.01 in 6.2 mi Variable 1.2 mph - N/A   Unknown
9:30 AM 84.2 °F 83.5 °F 57.2 °F 40% 30.01 in 6.2 mi Variable 4.6 mph - N/A   Unknown
10:00 AM 86.0 °F 84.5 °F 55.4 °F 35% 30.01 in 6.2 mi SSW 9.2 mph - N/A   Unknown
10:30 AM 89.6 °F 87.3 °F 53.6 °F 29% 30.01 in 6.2 mi SW 11.5 mph - N/A   Unknown
11:00 AM 89.6 °F - 51.8 °F 27% 30.01 in 6.2 mi SW 12.7 mph - N/A   Unknown
11:30 AM 87.8 °F 86.1 °F 55.4 °F 33% 30.01 in 6.2 mi SW 13.8 mph - N/A   Unknown
12:00 PM 89.6 °F 87.3 °F 53.6 °F 29% 30.01 in 6.2 mi SW 12.7 mph - N/A   Unknown
12:30 PM 91.4 °F 89.1 °F 53.6 °F 28% 30.01 in 6.2 mi SW 13.8 mph - N/A   Unknown
1:00 PM 91.4 °F - 51.8 °F 26% 30.01 in 6.2 mi SW 11.5 mph - N/A   Unknown
1:30 PM 93.2 °F - 51.8 °F 24% 29.98 in 6.2 mi SW 11.5 mph - N/A   Unknown
2:00 PM 93.2 °F - 50.0 °F 23% 29.98 in 6.2 mi SW 12.7 mph - N/A   Unknown
2:30 PM 95.0 °F - 51.8 °F 23% 29.98 in 6.2 mi SW 12.7 mph - N/A   Unknown
3:00 PM 95.0 °F - 51.8 °F 23% 29.95 in 6.2 mi WSW 11.5 mph - N/A   Unknown
3:30 PM 95.0 °F - 50.0 °F 22% 29.95 in 6.2 mi West 13.8 mph - N/A   Unknown
4:00 PM 95.0 °F - 48.2 °F 20% 29.95 in 6.2 mi West 15.0 mph - N/A   Unknown
4:30 PM 96.8 °F - 42.8 °F 16% 29.95 in 6.2 mi WSW 12.7 mph - N/A   Unknown
5:00 PM 96.8 °F - 42.8 °F 16% 29.95 in 6.2 mi West 11.5 mph - N/A   Unknown
5:30 PM 95.0 °F - 41.0 °F 15% 29.92 in 6.2 mi WSW 12.7 mph - N/A   Unknown
6:00 PM 93.2 °F - 44.6 °F 19% 29.92 in 6.2 mi WSW 12.7 mph - N/A   Unknown
6:30 PM 89.6 °F - 48.2 °F 24% 29.92 in 6.2 mi SW 12.7 mph - N/A   Unknown
7:00 PM 86.0 °F - 46.4 °F 25% 29.92 in 6.2 mi SW 13.8 mph - N/A   Unknown
7:30 PM 84.2 °F - 50.0 °F 30% 29.92 in 6.2 mi SW 10.4 mph - N/A   Unknown
8:00 PM 82.4 °F 81.7 °F 55.4 °F 39% 29.92 in 6.2 mi SSW 9.2 mph - N/A   Unknown
8:30 PM 77.0 °F - 62.6 °F 61% 29.92 in 6.2 mi SSW 8.1 mph - N/A   Unknown
9:00 PM 75.2 °F - 66.2 °F 73% 29.92 in 6.2 mi SSW 6.9 mph - N/A   Unknown
9:30 PM 73.4 °F - 66.2 °F 78% 29.92 in 6.2 mi South 4.6 mph - N/A   Unknown
10:00 PM 73.4 °F - 68.0 °F 83% 29.95 in 6.2 mi SSW 6.9 mph - N/A   Unknown
10:30 PM 73.4 °F - 68.0 °F 83% 29.95 in 6.2 mi SSW 5.8 mph - N/A   Unknown
11:00 PM 71.6 °F - 68.0 °F 88% 29.95 in 6.2 mi SSW 5.8 mph - N/A   Unknown
11:30 PM 71.6 °F - 68.0 °F 88% 29.95 in 6.2 mi Variable 3.5 mph - N/A   Unknown